GLO3218 SBSP-SBPF

Flight info

Callsign GLO3218
Flight time 1h 10m
Altitude 34000
Route SOVSI UZ85 RAXIT DCT UMDOR DCT DOLDI UZ68 ISNIL
Aircraft B737/M-SDE2E3FGHIRWXY/LB1

Departure

Time 2026-05-06 13:54
Airport Congonhas–Deputado Freitas Nobre Airport (SBSP)

Arrival

Time 2026-05-06 15:04
Airport Lauro Kurtz Airport (SBPF)
Time Latitude Longitude Altitude Speed Heading
2026-05-06 13:29 -23.62574 -46.65926 2609 ft 0 kts 238°
2026-05-06 13:46 -23.62568 -46.65915 2609 ft 2 kts 254°
2026-05-06 13:46 -23.62566 -46.65899 2609 ft 2 kts 272°
2026-05-06 13:46 -23.62567 -46.65888 2609 ft 2 kts 285°
2026-05-06 13:47 -23.62576 -46.65869 2610 ft 2 kts 311°
2026-05-06 13:47 -23.62584 -46.65861 2610 ft 0 kts 324°
2026-05-06 13:47 -23.62590 -46.65857 2610 ft 0 kts 327°
2026-05-06 13:49 -23.62575 -46.65863 2610 ft 7 kts 349°
2026-05-06 13:49 -23.62523 -46.65870 2610 ft 9 kts 351°
2026-05-06 13:49 -23.62461 -46.65899 2608 ft 10 kts 333°
2026-05-06 13:50 -23.62401 -46.65940 2606 ft 12 kts 326°
2026-05-06 13:50 -23.62320 -46.65994 2604 ft 13 kts 330°
2026-05-06 13:50 -23.62240 -46.66046 2601 ft 10 kts 333°
2026-05-06 13:50 -23.62182 -46.66082 2599 ft 11 kts 327°
2026-05-06 13:51 -23.62136 -46.66114 2597 ft 2 kts 327°
2026-05-06 13:51 -23.62135 -46.66115 2597 ft 0 kts 327°
2026-05-06 13:52 -23.62130 -46.66119 2597 ft 2 kts 326°
2026-05-06 13:52 -23.62093 -46.66138 2595 ft 7 kts 354°
2026-05-06 13:52 -23.62053 -46.66113 2596 ft 6 kts 61°
2026-05-06 13:53 -23.62052 -46.66077 2596 ft 4 kts 124°
2026-05-06 13:53 -23.62065 -46.66066 2597 ft 1 kts 143°
2026-05-06 13:53 -23.62135 -46.66013 2599 ft 44 kts 147°
2026-05-06 13:53 -23.62580 -46.65706 2616 ft 115 kts 148°
2026-05-06 13:54 -23.63417 -46.65126 2738 ft 167 kts 145°
2026-05-06 13:54 -23.64718 -46.64198 3610 ft 184 kts 146°
2026-05-06 13:54 -23.65417 -46.63763 4082 ft 192 kts 154°
2026-05-06 13:54 -23.66692 -46.63556 4566 ft 217 kts 188°
2026-05-06 13:55 -23.68727 -46.64184 5310 ft 250 kts 190°
2026-05-06 13:55 -23.69712 -46.64322 5721 ft 261 kts 184°
2026-05-06 13:55 -23.71620 -46.64515 6484 ft 280 kts 186°
2026-05-06 13:55 -23.73595 -46.64765 7351 ft 292 kts 187°
2026-05-06 13:56 -23.75440 -46.65111 7555 ft 306 kts 199°
2026-05-06 13:56 -23.77200 -46.66467 8494 ft 310 kts 234°
2026-05-06 13:56 -23.77873 -46.67906 9552 ft 298 kts 256°
2026-05-06 13:56 -23.78167 -46.70770 11072 ft 296 kts 266°
2026-05-06 13:57 -23.78650 -46.72854 11510 ft 321 kts 246°
2026-05-06 13:57 -23.79434 -46.74265 12064 ft 330 kts 237°
2026-05-06 13:57 -23.80705 -46.76277 12969 ft 336 kts 239°
2026-05-06 13:57 -23.82317 -46.79044 14184 ft 342 kts 240°
2026-05-06 13:58 -23.83161 -46.80518 14818 ft 345 kts 240°
2026-05-06 13:58 -23.84447 -46.82756 15759 ft 349 kts 240°
2026-05-06 13:58 -23.85740 -46.85011 16665 ft 354 kts 241°
2026-05-06 13:58 -23.87043 -46.87295 17550 ft 357 kts 241°
2026-05-06 13:59 -23.88330 -46.89552 18381 ft 361 kts 241°
2026-05-06 13:59 -23.90104 -46.92662 19503 ft 366 kts 242°
2026-05-06 13:59 -23.91007 -46.94246 20044 ft 368 kts 242°
2026-05-06 13:59 -23.92366 -46.96634 20842 ft 372 kts 242°
2026-05-06 14:00 -23.93728 -46.99028 21608 ft 375 kts 242°
2026-05-06 14:00 -23.95112 -47.01460 22358 ft 378 kts 242°
2026-05-06 14:00 -23.96470 -47.03849 23065 ft 381 kts 242°
2026-05-06 14:00 -23.97877 -47.06325 23773 ft 384 kts 242°
2026-05-06 14:01 -23.99766 -47.09652 24682 ft 388 kts 242°
2026-05-06 14:01 -24.00483 -47.10915 25015 ft 390 kts 242°
2026-05-06 14:01 -24.01938 -47.13480 25668 ft 393 kts 242°
2026-05-06 14:01 -24.03372 -47.16008 26291 ft 395 kts 242°
2026-05-06 14:02 -24.04826 -47.18574 26899 ft 398 kts 242°
2026-05-06 14:02 -24.06289 -47.21155 27491 ft 401 kts 242°
2026-05-06 14:02 -24.07810 -47.23753 28067 ft 405 kts 239°
2026-05-06 14:02 -24.09554 -47.26202 28622 ft 410 kts 234°
2026-05-06 14:03 -24.11358 -47.28518 29143 ft 413 kts 234°
2026-05-06 14:03 -24.13202 -47.30930 29660 ft 415 kts 235°
2026-05-06 14:03 -24.14969 -47.33279 30143 ft 417 kts 235°
2026-05-06 14:03 -24.16744 -47.35632 30612 ft 419 kts 234°
2026-05-06 14:04 -24.18419 -47.37845 31040 ft 421 kts 234°
2026-05-06 14:04 -24.20293 -47.40320 31505 ft 423 kts 234°
2026-05-06 14:04 -24.22176 -47.42809 31956 ft 426 kts 234°
2026-05-06 14:04 -24.24084 -47.45332 32400 ft 428 kts 234°
2026-05-06 14:05 -24.25923 -47.47764 32807 ft 430 kts 234°
2026-05-06 14:05 -24.27808 -47.50257 33380 ft 427 kts 234°
2026-05-06 14:05 -24.28971 -47.51793 33825 ft 423 kts 234°
2026-05-06 14:05 -24.30590 -47.53934 34269 ft 421 kts 235°
2026-05-06 14:06 -24.34279 -47.58828 34318 ft 424 kts 234°
2026-05-06 14:06 -24.38038 -47.63809 34317 ft 420 kts 235°
2026-05-06 14:07 -24.42241 -47.69331 34317 ft 422 kts 232°
2026-05-06 14:07 -24.45791 -47.73134 34317 ft 426 kts 228°
2026-05-06 14:08 -24.49156 -47.76639 34317 ft 425 kts 229°
2026-05-06 14:08 -24.53419 -47.81169 34317 ft 425 kts 229°
2026-05-06 14:09 -24.57662 -47.85661 34317 ft 425 kts 229°
2026-05-06 14:09 -24.61713 -47.89957 34317 ft 425 kts 229°
2026-05-06 14:10 -24.65839 -47.94337 34317 ft 425 kts 229°
2026-05-06 14:10 -24.70093 -47.98857 34317 ft 425 kts 229°
2026-05-06 14:11 -24.74310 -48.03337 34317 ft 425 kts 229°
2026-05-06 14:11 -24.78550 -48.07843 34317 ft 425 kts 229°
2026-05-06 14:12 -24.82515 -48.12071 34317 ft 425 kts 229°
2026-05-06 14:12 -24.86721 -48.16557 34317 ft 425 kts 229°
2026-05-06 14:13 -24.90887 -48.21007 34317 ft 425 kts 229°
2026-05-06 14:13 -24.95130 -48.25552 34317 ft 425 kts 229°
2026-05-06 14:14 -24.99356 -48.30076 34317 ft 424 kts 229°
2026-05-06 14:14 -25.03590 -48.34612 34317 ft 422 kts 230°
2026-05-06 14:15 -25.07501 -48.38806 34317 ft 421 kts 231°
2026-05-06 14:15 -25.11613 -48.43225 34317 ft 419 kts 232°
2026-05-06 14:16 -25.15388 -48.47974 34317 ft 414 kts 237°
2026-05-06 14:16 -25.19081 -48.52869 34317 ft 415 kts 236°
2026-05-06 14:17 -25.22682 -48.57578 34317 ft 415 kts 237°
2026-05-06 14:17 -25.26357 -48.62405 34317 ft 415 kts 237°
2026-05-06 14:18 -25.29991 -48.67178 34317 ft 415 kts 237°
2026-05-06 14:18 -25.33703 -48.72058 34317 ft 415 kts 237°
2026-05-06 14:19 -25.37419 -48.76950 34317 ft 415 kts 237°
2026-05-06 14:19 -25.41121 -48.81828 34317 ft 415 kts 237°
2026-05-06 14:20 -25.44859 -48.86757 34317 ft 415 kts 237°
2026-05-06 14:20 -25.48503 -48.91569 34317 ft 415 kts 237°
2026-05-06 14:21 -25.51913 -48.96075 34317 ft 415 kts 237°
2026-05-06 14:21 -25.55619 -49.00978 34317 ft 415 kts 237°
2026-05-06 14:22 -25.59017 -49.05478 34317 ft 414 kts 237°
2026-05-06 14:22 -25.62608 -49.10237 34317 ft 414 kts 238°
2026-05-06 14:23 -25.66282 -49.15112 34317 ft 413 kts 238°
2026-05-06 14:23 -25.69984 -49.20030 34317 ft 413 kts 238°
2026-05-06 14:24 -25.73460 -49.24653 34317 ft 414 kts 238°
2026-05-06 14:24 -25.77147 -49.29561 34317 ft 414 kts 238°
2026-05-06 14:25 -25.80827 -49.34463 34317 ft 414 kts 238°
2026-05-06 14:25 -25.84507 -49.39373 34317 ft 414 kts 238°
2026-05-06 14:26 -25.88186 -49.44286 34317 ft 414 kts 238°
2026-05-06 14:26 -25.91850 -49.49185 34317 ft 414 kts 238°
2026-05-06 14:27 -25.95470 -49.54030 34317 ft 414 kts 238°
2026-05-06 14:27 -25.99136 -49.58940 34317 ft 414 kts 238°
2026-05-06 14:28 -26.02802 -49.63858 34317 ft 414 kts 238°
2026-05-06 14:28 -26.06493 -49.68812 34317 ft 414 kts 239°
2026-05-06 14:29 -26.10081 -49.73632 34317 ft 413 kts 239°
2026-05-06 14:29 -26.13745 -49.78561 34317 ft 411 kts 239°
2026-05-06 14:30 -26.17388 -49.83468 34317 ft 412 kts 239°
2026-05-06 14:30 -26.20979 -49.88312 34317 ft 413 kts 239°
2026-05-06 14:31 -26.24528 -49.93101 34317 ft 413 kts 239°
2026-05-06 14:31 -26.28160 -49.98009 34317 ft 413 kts 239°
2026-05-06 14:32 -26.31677 -50.02765 34317 ft 413 kts 239°
2026-05-06 14:32 -26.35312 -50.07688 34317 ft 413 kts 239°
2026-05-06 14:33 -26.38958 -50.12630 34317 ft 413 kts 239°
2026-05-06 14:33 -26.42596 -50.17567 34317 ft 413 kts 239°
2026-05-06 14:34 -26.46234 -50.22509 34317 ft 413 kts 239°
2026-05-06 14:34 -26.49869 -50.27452 34317 ft 413 kts 239°
2026-05-06 14:35 -26.53498 -50.32394 34317 ft 413 kts 239°
2026-05-06 14:35 -26.57219 -50.37306 34316 ft 418 kts 234°
2026-05-06 14:36 -26.62093 -50.42610 34317 ft 420 kts 233°
2026-05-06 14:36 -26.65540 -50.46434 34317 ft 419 kts 233°
2026-05-06 14:37 -26.69692 -50.51032 34317 ft 420 kts 233°
2026-05-06 14:37 -26.73806 -50.55593 34307 ft 420 kts 233°
2026-05-06 14:38 -26.77948 -50.60192 34272 ft 420 kts 233°
2026-05-06 14:38 -26.82100 -50.64782 34237 ft 420 kts 233°
2026-05-06 14:39 -26.86254 -50.69376 34224 ft 420 kts 233°
2026-05-06 14:39 -26.90334 -50.73893 34228 ft 418 kts 233°
2026-05-06 14:40 -26.94447 -50.78449 34231 ft 411 kts 234°
2026-05-06 14:40 -26.98470 -50.82911 34221 ft 404 kts 235°
2026-05-06 14:41 -27.02436 -50.87320 34199 ft 398 kts 235°
2026-05-06 14:41 -27.06142 -50.91442 34197 ft 395 kts 236°
2026-05-06 14:42 -27.10045 -50.95801 34208 ft 401 kts 236°
2026-05-06 14:42 -27.13935 -51.00137 34209 ft 405 kts 236°
2026-05-06 14:43 -27.17934 -51.04600 34197 ft 408 kts 236°
2026-05-06 14:43 -27.21822 -51.08944 34182 ft 411 kts 236°
2026-05-06 14:44 -27.25918 -51.13525 34181 ft 414 kts 236°
2026-05-06 14:45 -27.32583 -51.20996 34229 ft 410 kts 237°
2026-05-06 14:45 -27.35557 -51.25047 34235 ft 399 kts 244°
2026-05-06 14:46 -27.38877 -51.30080 34236 ft 400 kts 244°
2026-05-06 14:46 -27.42226 -51.35064 34236 ft 400 kts 244°
2026-05-06 14:47 -27.45565 -51.40079 34234 ft 400 kts 244°
2026-05-06 14:47 -27.47230 -51.42580 34060 ft 399 kts 244°
2026-05-06 14:47 -27.48894 -51.45081 33368 ft 399 kts 244°
2026-05-06 14:47 -27.50534 -51.47554 32647 ft 400 kts 244°
2026-05-06 14:48 -27.52189 -51.50048 32347 ft 399 kts 244°
2026-05-06 14:48 -27.53879 -51.52609 32101 ft 410 kts 243°
2026-05-06 14:48 -27.55604 -51.55223 31847 ft 417 kts 243°
2026-05-06 14:48 -27.57343 -51.57846 31595 ft 419 kts 243°
2026-05-06 14:49 -27.59080 -51.60464 31344 ft 420 kts 243°
2026-05-06 14:49 -27.60821 -51.63095 31093 ft 420 kts 243°
2026-05-06 14:49 -27.62563 -51.65728 30843 ft 419 kts 243°
2026-05-06 14:49 -27.64226 -51.68244 30602 ft 418 kts 243°
2026-05-06 14:50 -27.65963 -51.70874 30204 ft 418 kts 243°
2026-05-06 14:50 -27.67696 -51.73502 29345 ft 421 kts 243°
2026-05-06 14:50 -27.69462 -51.76185 28671 ft 419 kts 243°
2026-05-06 14:50 -27.71172 -51.78771 28188 ft 414 kts 243°
2026-05-06 14:51 -27.72896 -51.81386 27590 ft 411 kts 243°
2026-05-06 14:51 -27.74594 -51.83969 26985 ft 409 kts 242°
2026-05-06 14:51 -27.76276 -51.86527 26382 ft 408 kts 242°
2026-05-06 14:51 -27.77960 -51.89090 25781 ft 406 kts 242°
2026-05-06 14:52 -27.79577 -51.91552 25207 ft 404 kts 242°
2026-05-06 14:52 -27.81255 -51.94108 24611 ft 403 kts 241°
2026-05-06 14:52 -27.82897 -51.96611 24032 ft 401 kts 241°
2026-05-06 14:52 -27.84496 -51.99050 23483 ft 399 kts 241°
2026-05-06 14:53 -27.86144 -52.01565 22911 ft 397 kts 240°
2026-05-06 14:53 -27.87779 -52.04062 22343 ft 395 kts 240°
2026-05-06 14:53 -27.89396 -52.06533 21794 ft 393 kts 240°
2026-05-06 14:53 -27.91014 -52.09006 21248 ft 391 kts 240°
2026-05-06 14:54 -27.92627 -52.11474 20703 ft 389 kts 239°
2026-05-06 14:54 -27.94230 -52.13927 20163 ft 387 kts 239°
2026-05-06 14:54 -27.95812 -52.16349 19638 ft 385 kts 239°
2026-05-06 14:54 -27.97125 -52.18362 19200 ft 383 kts 239°
2026-05-06 14:55 -27.98745 -52.20845 18661 ft 380 kts 238°
2026-05-06 14:55 -28.00303 -52.23234 18150 ft 378 kts 238°
2026-05-06 14:55 -28.01868 -52.25636 17638 ft 376 kts 238°
2026-05-06 14:55 -28.03400 -52.27989 17130 ft 373 kts 238°
2026-05-06 14:56 -28.04946 -52.30364 16459 ft 366 kts 237°
2026-05-06 14:56 -28.06426 -52.32637 15583 ft 360 kts 237°
2026-05-06 14:56 -28.07912 -52.34924 14626 ft 356 kts 236°
2026-05-06 14:56 -28.09205 -52.36911 14350 ft 335 kts 236°
2026-05-06 14:57 -28.10552 -52.38980 14127 ft 313 kts 236°
2026-05-06 14:57 -28.11809 -52.40918 13653 ft 307 kts 236°
2026-05-06 14:57 -28.13069 -52.42864 13355 ft 302 kts 236°
2026-05-06 14:57 -28.14312 -52.44781 13009 ft 300 kts 236°
2026-05-06 14:58 -28.15535 -52.46668 12658 ft 297 kts 235°
2026-05-06 14:58 -28.16766 -52.48567 12299 ft 295 kts 235°
2026-05-06 14:58 -28.17871 -52.50273 11974 ft 294 kts 235°
2026-05-06 14:58 -28.19089 -52.52155 11556 ft 294 kts 235°
2026-05-06 14:59 -28.20289 -52.54008 11129 ft 290 kts 234°
2026-05-06 14:59 -28.21644 -52.55633 10663 ft 282 kts 214°
2026-05-06 14:59 -28.23442 -52.56367 10250 ft 273 kts 182°
2026-05-06 14:59 -28.25300 -52.56070 9700 ft 269 kts 160°
2026-05-06 15:00 -28.26907 -52.55080 9153 ft 262 kts 139°
2026-05-06 15:00 -28.28246 -52.53702 8579 ft 257 kts 135°
2026-05-06 15:00 -28.29501 -52.52350 8063 ft 245 kts 127°
2026-05-06 15:00 -28.30142 -52.50686 7578 ft 219 kts 91°
2026-05-06 15:01 -28.30014 -52.49064 7144 ft 200 kts 74°
2026-05-06 15:01 -28.29576 -52.47635 6709 ft 186 kts 65°
2026-05-06 15:01 -28.29114 -52.46305 6231 ft 179 kts 66°
2026-05-06 15:01 -28.28652 -52.44951 5431 ft 193 kts 66°
2026-05-06 15:02 -28.28176 -52.43565 4779 ft 187 kts 66°
2026-05-06 15:02 -28.27717 -52.42231 4244 ft 178 kts 66°
2026-05-06 15:02 -28.27303 -52.41032 3933 ft 161 kts 66°
2026-05-06 15:02 -28.26885 -52.39866 3578 ft 157 kts 65°
2026-05-06 15:03 -28.26509 -52.38810 3243 ft 134 kts 65°
2026-05-06 15:03 -28.26168 -52.37844 3071 ft 133 kts 65°
2026-05-06 15:03 -28.25829 -52.36874 2893 ft 131 kts 65°
2026-05-06 15:03 -28.25497 -52.35922 2765 ft 128 kts 65°
2026-05-06 15:04 -28.25161 -52.34961 2579 ft 127 kts 65°
2026-05-06 15:04 -28.24834 -52.34033 2455 ft 127 kts 65°
2026-05-06 15:04 -28.24516 -52.33119 2385 ft 109 kts 66°
2026-05-06 15:04 -28.24334 -52.32589 2384 ft 36 kts 69°
2026-05-06 15:05 -28.24307 -52.32464 2384 ft 5 kts 82°
2026-05-06 15:05 -28.24291 -52.32463 2384 ft 4 kts 294°
2026-05-06 15:05 -28.24309 -52.32511 2384 ft 10 kts 246°
2026-05-06 15:05 -28.24343 -52.32613 2384 ft 15 kts 248°
2026-05-06 15:06 -28.24382 -52.32722 2384 ft 14 kts 248°
2026-05-06 15:06 -28.24416 -52.32820 2384 ft 10 kts 247°
2026-05-06 15:06 -28.24431 -52.32882 2384 ft 7 kts 285°
2026-05-06 15:06 -28.24382 -52.32921 2384 ft 5 kts 338°
2026-05-06 15:07 -28.24360 -52.32932 2384 ft 4 kts 338°
2026-05-06 15:07 -28.24345 -52.32952 2384 ft 3 kts 269°
2026-05-06 15:07 -28.24349 -52.32970 2384 ft 1 kts 252°
2026-05-06 15:07 -28.24352 -52.32980 2384 ft 1 kts 251°
2026-05-06 15:08 -28.24353 -52.32991 2384 ft 1 kts 284°
2026-05-06 15:08 -28.24348 -52.32999 2384 ft 1 kts 328°
2026-05-06 15:08 -28.24337 -52.33000 2384 ft 1 kts 15°
2026-05-06 15:08 -28.24329 -52.32988 2384 ft 1 kts 66°
2026-05-06 15:09 -28.24328 -52.32984 2384 ft 0 kts 67°